User: anonymous   Login
Location: Bruch
(44.2051°N, 0.4120°E)
Time: 16:24:28
(UTC+00:00)
Language:

BREEZE-M DEB - Orbit

View from above orbital plane
View from above orbital plane
View from above satellite
View from above satellite

Ground track
Ground track

The orbit data is extracted from the following two-line orbital elements,

1 36594U 10025C   21062.33039934  .00002261  00000-0  29511-3 0  9992
2 36594  49.5164 321.0581 5412986 214.0218  95.0669  4.96892215191889
Epoch (UTC): 03 March 2021 07:55:46
Eccentricity: 0.5412986
inclination: 49.5164°
perigee height: 276 km
apogee height: 15980 km
right ascension of ascending node: 321.0581°
argument of perigee: 214.0218°
revolutions per day: 4.96892215
mean anomaly at epoch: 95.0669°
orbit number at epoch: 19188

The dashed part of the orbit path shows where the satellite is in the earth's shadow,  

DLR